FW1140 Weather Reports


Display with metric or nautical units.
time (UTC)temp
F
wind
direction
speed
MPH
gust
MPH
rain 1hr
in
rain 24hr
in
rain mn
in
humidity
%
barometer
mb
20260906084551 71 127 3.0 5.0 0.00 0.00 0.00 94 1011.0
20260906083059 71 111 2.0 5.0 0.00 0.00 0.00 94 1010.9
20260906081600 71 136 3.0 6.0 0.00 0.00 0.00 94 1010.8
20260906080047 71 135 3.0 8.0 0.00 0.00 0.00 94 1010.7
20260906074546 71 124 3.0 7.0 0.00 0.00 0.00 94 1010.8
20260906073008 70 129 5.0 9.0 0.00 0.00 0.00 93 1010.4
20260906071521 70 100 3.0 8.0 0.00 0.00 0.00 93 1010.7
20260906070025 70 123 3.0 6.0 0.00 0.00 0.00 93 1010.9
20260906064534 70 128 3.0 7.0 0.00 0.00 0.00 93 1011.0
20260906063045 70 118 2.0 7.0 0.00 0.00 0.00 92 1010.9
20260906061600 70 155 5.0 8.0 0.00 0.00 0.00 92 1010.8
20260906054611 70 123 2.0 6.0 0.00 0.00 0.00 92 1011.4
20260906053023 70 124 3.0 6.0 0.00 0.00 0.00 91 1011.4
20260906051517 70 121 3.0 6.0 0.00 0.00 0.00 91 1011.3
20260906050028 69 121 3.0 5.0 0.00 0.00 0.00 90 1011.4
20260906044506 69 117 2.0 4.0 0.00 0.00 0.00 90 1011.5
20260906043015 70 113 1.0 5.0 0.00 0.00 0.00 89 1011.4
20260906041517 70 131 1.0 3.0 0.00 0.00 0.00 88 1011.3
20260906040016 70 84 2.0 4.0 0.00 0.00 0.00 87 1011.1
20260906034527 70 129 1.0 3.0 0.00 0.00 0.00 87 1010.7
20260906033028 71 114 2.0 4.0 0.00 0.00 0.00 86 1010.8
20260906031506 71 134 2.0 4.0 0.00 0.00 0.00 87 1011.0
20260906030021 71 134 1.0 3.0 0.00 0.00 0.00 86 1011.0
20260906024524 71 134 2.0 4.0 0.00 0.00 0.00 87 1010.6
20260906023044 71 134 2.0 3.0 0.00 0.00 0.00 86 1010.4
20260906021610 71 134 1.0 3.0 0.00 0.00 0.00 85 1010.2
20260906020107 72 109 1.0 3.0 0.00 0.00 0.00 84 1010.2
20260906014508 73 109 1.0 2.0 0.00 0.00 0.00 82 1010.1
20260906013042 74 109 1.0 4.0 0.00 0.00 0.00 80 1010.2
20260906011606 75 84 1.0 3.0 0.00 0.00 0.00 78 1010.1
20260906010020 76 115 2.0 8.0 0.00 0.00 0.00 75 1010.0
20260906004507 77 110 4.0 8.0 0.00 0.00 0.00 74 1010.0
20260906003109 78 97 2.0 6.0 0.00 0.00 0.00 72 1009.9
20260906001511 80 146 6.0 13.0 0.00 0.00 0.00 69 1009.7
20260906000035 81 96 5.0 13.0 0.00 0.00 0.00 68 1009.4
20260905234529 82 127 6.0 13.0 0.00 0.00 0.00 67 1009.4
20260905233028 82 92 6.0 14.0 0.00 0.00 0.00 66 1009.4
20260905231540 83 97 5.0 13.0 0.00 0.00 0.00 66 1009.4
20260905230018 0 0.0 0.0 0.00 0.00 0.00 1009.4
20260905224559 0 0.0 0.0 0.00 0.00 0.00 1009.3
20260905223003 0 0.0 0.0 0.00 0.00 0.00 1009.1
20260905221525 0 0.0 0.0 0.00 0.00 0.00 1008.9
20260905220040 0 0.0 0.0 0.00 0.00 0.00 1008.8
20260905214545 0 0.0 0.0 0.00 0.00 0.00 1009.0
20260905213019 0 0.0 0.0 0.00 0.00 0.00 1009.1
20260905211642 0 0.0 0.0 0.00 0.00 0.00 1009.2
20260905210058 0 0.0 0.0 0.00 0.00 0.00 1009.2
20260905204605 0 0.0 0.0 0.00 0.00 0.00 1009.3
20260905203016 0 0.0 0.0 0.00 0.00 0.00 1009.1
20260905201607 0 0.0 0.0 0.00 0.00 0.00 1009.2
20260905194558 0 0.0 0.0 0.00 0.00 0.00 1009.4
20260905193001 85 126 4.0 16.0 0.00 0.00 0.00 60 1009.2
20260905191556 85 69 5.0 9.0 0.00 0.00 0.00 59 1009.4
20260905190111 84 95 5.0 11.0 0.00 0.00 0.00 61 1009.6
20260905184514 83 128 4.0 11.0 0.00 0.00 0.00 63 1009.7
20260905183044 82 105 7.0 13.0 0.00 0.00 0.00 63 1009.8
20260905181605 82 91 6.0 13.0 0.00 0.00 0.00 65 1009.8
20260905180038 81 87 4.0 13.0 0.00 0.00 0.00 67 1010.0
20260905174549 79 119 6.0 13.0 0.00 0.00 0.00 70 1010.2
20260905173045 80 102 6.0 12.0 0.00 0.00 0.00 70 1010.2
20260905171609 78 122 4.0 12.0 0.00 0.00 0.00 73 1010.4
20260905170019 75 144 5.0 10.0 0.00 0.00 0.00 77 1010.5
20260905164535 76 88 4.0 10.0 0.00 0.00 0.00 77 1010.9
20260905163035 75 80 4.0 9.0 0.00 0.00 0.00 78 1010.7
20260905161532 74 117 4.0 11.0 0.00 0.00 0.00 79 1010.9
20260905160040 73 85 4.0 9.0 0.00 0.00 0.00 82 1011.1
20260905154555 71 77 4.0 8.0 0.00 0.00 0.00 86 1011.0
20260905153001 72 85 4.0 8.0 0.00 0.00 0.00 86 1010.9
20260905151520 69 123 3.0 8.0 0.00 0.00 0.00 91 1010.9
20260905150029 68 68 3.0 8.0 0.00 0.00 0.00 93 1011.0
20260905144551 68 73 4.0 7.0 0.00 0.00 0.00 94 1010.7
20260905143026 67 79 3.0 6.0 0.00 0.00 0.00 95 1010.6
20260905141508 67 96 3.0 7.0 0.00 0.00 0.00 94 1010.2
20260905140022 67 56 3.0 7.0 0.00 0.00 0.00 95 1010.5
20260905134503 67 59 2.0 4.0 0.00 0.00 0.00 95 1010.5
20260905133106 67 117 2.0 6.0 0.00 0.00 0.00 95 1010.7
20260905131551 67 75 1.0 4.0 0.00 0.00 0.00 95 1010.6
20260905130026 67 144 2.0 5.0 0.00 0.00 0.00 95 1010.9
20260905124536 67 162 1.0 5.0 0.00 0.00 0.00 95 1010.8
20260905123020 66 110 2.0 8.0 0.00 0.00 0.00 95 1010.0
20260905121540 66 51 3.0 8.0 0.00 0.00 0.00 94 1010.4
20260905120031 66 101 3.0 8.0 0.00 0.00 0.00 94 1010.1
20260905114622 67 99 3.0 7.0 0.00 0.00 0.00 94 1010.0
20260905113048 67 136 1.0 5.0 0.00 0.00 0.00 94 1010.3
20260905111504 67 94 2.0 4.0 0.00 0.00 0.00 94 1010.7
20260905110016 67 107 2.0 4.0 0.00 0.00 0.00 94 1010.6
20260905104529 66 217 0.0 2.0 0.00 0.00 0.00 94 1010.7
20260905103030 66 62 1.0 3.0 0.00 0.00 0.00 94 1010.4
20260905101510 0 0.0 0.0 0.00 0.00 0.00 1010.2
20260905100024 0 0.0 0.0 0.00 0.00 0.00 1010.1
20260905094538 0 0.0 0.0 0.00 0.00 0.00 1009.9
20260905093056 0 0.0 0.0 0.00 0.00 0.00 1009.8
20260905091504 0 0.0 0.0 0.00 0.00 0.00 1009.7
20260905090027 0 0.0 0.0 0.00 0.00 0.00 1009.9